Location: Byhalia Creek
(34.8270°N, 89.8040°W)
Time: 17:18:45
(UTC+00:00)

Terra - Pass Details

Date: 22 April 2026
Orbit: 688 x 691 km, 97.9° (Epoch: 9 May)

Event Time Altitude Azimuth Distance (km) Brightness Sun altitude
Exits shadow 03:06:04 33° 237° (WSW) 1,153 3.0 -27.8°
Maximum altitude 03:06:57 36° 262° (W) 1,089 3.0 -28.0°
Drops below altitude 10° 03:11:16 10° 329° (NNW) 2,142 5.2 -28.6°
Sets 03:13:41 0° 338° (NNW) 3,062 6.1 -29.0°
